• în România
  • Lista ţărilor
  • Pe 7 zile
  • Temperatura apei
  • Hartă satelitară
  • Meteo pe hartă
  • Widget-uri
  • user-avatar
    Intrare

    Meteo pe oră la Shinkovo

    Astăzi, 20 Iulie, Vineri

    Timp Temperatura Precipitaţii Vânt Presiune Umiditate
    00:00 +18°C° 0 mm 2 m/s 736 mmHg 94%
    01:00 +18°C° 0 mm 2 m/s 736 mmHg 95%
    02:00 +18°C° 0 mm 2 m/s 736 mmHg 96%
    03:00 +18°C° 0,1 mm 2 m/s 736 mmHg 96%
    04:00 +18°C° 0,1 mm 2 m/s 736 mmHg 96%
    05:00 +18°C° 0,1 mm 2 m/s 736 mmHg 96%
    06:00 +19°C° 0,1 mm 2 m/s 736 mmHg 95%
    07:00 +19°C° 0,1 mm 2 m/s 736 mmHg 94%
    08:00 +20°C° 0 mm 2 m/s 735 mmHg 93%
    09:00 +20°C° 0,2 mm 2 m/s 735 mmHg 92%
    10:00 +21°C° 0,2 mm 2 m/s 735 mmHg 91%
    11:00 +21°C° 0,2 mm 2 m/s 735 mmHg 89%
    12:00 +23°C° 0,4 mm 2 m/s 735 mmHg 87%
    13:00 +24°C° 0,4 mm 3 m/s 734 mmHg 84%
    14:00 +25°C° 0,4 mm 3 m/s 734 mmHg 81%
    15:00 +25°C° 0,5 mm 3 m/s 734 mmHg 82%
    16:00 +24°C° 0,5 mm 2 m/s 734 mmHg 84%
    17:00 +24°C° 0,5 mm 2 m/s 734 mmHg 86%
    18:00 +23°C° 0,6 mm 2 m/s 734 mmHg 89%
    19:00 +21°C° 0,6 mm 2 m/s 734 mmHg 93%
    20:00 +21°C° 0,6 mm 1 m/s 734 mmHg 96%
    21:00 +21°C° 0,1 mm 1 m/s 734 mmHg 97%
    22:00 +20°C° 0,1 mm 1 m/s 734 mmHg 97%
    23:00 +20°C° 0,1 mm 1 m/s 734 mmHg 97%

    Mâine, 21 Iulie, Sâmbătă

    Timp Temperatura Precipitaţii Vânt Presiune Umiditate
    00:00 +19°C° 0 mm 1 m/s 734 mmHg 98%
    01:00 +19°C° 0 mm 1 m/s 734 mmHg 98%
    02:00 +19°C° 0 mm 1 m/s 734 mmHg 98%
    03:00 +19°C° 0 mm 1 m/s 734 mmHg 98%
    04:00 +20°C° 0 mm 1 m/s 734 mmHg 98%
    05:00 +20°C° 0 mm 1 m/s 734 mmHg 98%
    06:00 +21°C° 0 mm 1 m/s 735 mmHg 96%
    07:00 +22°C° 0 mm 1 m/s 735 mmHg 94%
    08:00 +23°C° 0 mm 1 m/s 735 mmHg 91%
    09:00 +24°C° 0,2 mm 1 m/s 735 mmHg 87%
    10:00 +25°C° 0,2 mm 1 m/s 735 mmHg 82%
    11:00 +26°C° 0,2 mm 1 m/s 735 mmHg 78%
    12:00 +27°C° 0,9 mm 2 m/s 735 mmHg 75%
    13:00 +28°C° 0,9 mm 2 m/s 735 mmHg 73%
    14:00 +28°C° 0,9 mm 2 m/s 735 mmHg 70%
    15:00 +28°C° 1,2 mm 2 m/s 735 mmHg 74%
    16:00 +27°C° 1,2 mm 2 m/s 735 mmHg 77%
    17:00 +27°C° 1,2 mm 2 m/s 735 mmHg 81%
    18:00 +26°C° 0,6 mm 2 m/s 735 mmHg 85%
    19:00 +24°C° 0,6 mm 2 m/s 735 mmHg 89%
    20:00 +23°C° 0,6 mm 2 m/s 736 mmHg 93%
    21:00 +21°C° 0,4 mm 2 m/s 736 mmHg 94%
    22:00 +21°C° 0,4 mm 2 m/s 736 mmHg 95%
    23:00 +20°C° 0,4 mm 2 m/s 736 mmHg 97%

    Poimâine, 22 Iulie, Duminică

    Timp Temperatura Precipitaţii Vânt Presiune Umiditate
    00:00 +20°C° 0 mm 2 m/s 736 mmHg 97%
    01:00 +19°C° 0 mm 2 m/s 736 mmHg 97%
    02:00 +19°C° 0 mm 2 m/s 736 mmHg 97%
    03:00 +19°C° 0 mm 2 m/s 736 mmHg 97%
    04:00 +19°C° 0 mm 2 m/s 736 mmHg 97%
    05:00 +20°C° 0 mm 2 m/s 736 mmHg 97%
    06:00 +20°C° 0,1 mm 2 m/s 736 mmHg 96%
    07:00 +21°C° 0,1 mm 3 m/s 736 mmHg 94%
    08:00 +21°C° 0,1 mm 3 m/s 736 mmHg 92%
    09:00 +22°C° 0,4 mm 3 m/s 736 mmHg 91%
    10:00 +22°C° 0,4 mm 3 m/s 736 mmHg 89%
    11:00 +22°C° 0,4 mm 3 m/s 736 mmHg 88%
    12:00 +22°C° 0,2 mm 3 m/s 737 mmHg 86%
    13:00 +22°C° 0,2 mm 4 m/s 737 mmHg 85%
    14:00 +22°C° 0,2 mm 4 m/s 737 mmHg 83%
    15:00 +22°C° 0 mm 3 m/s 737 mmHg 84%
    16:00 +22°C° 0 mm 3 m/s 737 mmHg 84%
    17:00 +22°C° 0 mm 3 m/s 737 mmHg 85%
    18:00 +21°C° 0 mm 2 m/s 737 mmHg 87%
    19:00 +21°C° 0 mm 2 m/s 737 mmHg 90%
    20:00 +21°C° 0 mm 2 m/s 737 mmHg 92%
    21:00 +20°C° 0,1 mm 2 m/s 737 mmHg 93%
    22:00 +20°C° 0,1 mm 2 m/s 737 mmHg 94%
    23:00 +20°C° 0,1 mm 2 m/s 737 mmHg 95%

    23 Iulie, Luni

    Timp Temperatura Precipitaţii Vânt Presiune Umiditate
    00:00 +20°C° 0 mm 2 m/s 737 mmHg 95%
    01:00 +19°C° 0 mm 2 m/s 738 mmHg 95%
    02:00 +19°C° 0 mm 2 m/s 738 mmHg 96%
    03:00 +19°C° 0 mm 2 m/s 738 mmHg 96%
    04:00 +18°C° 0 mm 3 m/s 738 mmHg 96%
    05:00 +18°C° 0 mm 3 m/s 738 mmHg 96%
    06:00 +19°C° 0 mm 3 m/s 738 mmHg 90%
    07:00 +20°C° 0 mm 3 m/s 738 mmHg 85%
    08:00 +21°C° 0 mm 3 m/s 738 mmHg 80%
    09:00 +21°C° 0 mm 3 m/s 738 mmHg 78%
    10:00 +22°C° 0 mm 3 m/s 738 mmHg 75%
    11:00 +24°C° 0 mm 3 m/s 738 mmHg 72%
    12:00 +24°C° 0,1 mm 3 m/s 738 mmHg 73%
    13:00 +24°C° 0,1 mm 3 m/s 738 mmHg 73%
    14:00 +24°C° 0,1 mm 3 m/s 738 mmHg 73%
    15:00 +24°C° 0 mm 3 m/s 738 mmHg 74%
    16:00 +24°C° 0 mm 3 m/s 738 mmHg 75%
    17:00 +24°C° 0 mm 3 m/s 738 mmHg 76%
    18:00 +23°C° 0 mm 2 m/s 738 mmHg 81%
    19:00 +21°C° 0 mm 2 m/s 738 mmHg 86%
    20:00 +20°C° 0 mm 2 m/s 738 mmHg 91%
    21:00 +19°C° 0 mm 2 m/s 738 mmHg 94%
    22:00 +18°C° 0 mm 2 m/s 738 mmHg 96%
    23:00 +18°C° 0 mm 2 m/s 738 mmHg 98%

    24 Iulie, Marţi

    Timp Temperatura Precipitaţii Vânt Presiune Umiditate
    00:00 +18°C° 0 mm 2 m/s 739 mmHg 98%
    01:00 +18°C° 0 mm 2 m/s 739 mmHg 98%
    02:00 +17°C° 0 mm 2 m/s 739 mmHg 98%
    03:00 +17°C° 0 mm 2 m/s 739 mmHg 97%
    04:00 +18°C° 0 mm 2 m/s 739 mmHg 96%
    05:00 +18°C° 0 mm 2 m/s 739 mmHg 95%
    06:00 +18°C° 0 mm 2 m/s 739 mmHg 93%
    07:00 +19°C° 0 mm 2 m/s 739 mmHg 91%
    08:00 +19°C° 0 mm 3 m/s 739 mmHg 89%
    09:00 +20°C° 0 mm 3 m/s 739 mmHg 86%
    10:00 +20°C° 0 mm 3 m/s 739 mmHg 83%
    11:00 +21°C° 0 mm 3 m/s 740 mmHg 81%
    12:00 +21°C° 0 mm 3 m/s 740 mmHg 79%
    13:00 +22°C° 0 mm 3 m/s 739 mmHg 78%
    14:00 +22°C° 0 mm 3 m/s 739 mmHg 77%
    15:00 +22°C° 0 mm 3 m/s 739 mmHg 78%
    16:00 +22°C° 0 mm 3 m/s 739 mmHg 79%
    17:00 +22°C° 0 mm 3 m/s 739 mmHg 81%
    18:00 +21°C° 0 mm 3 m/s 740 mmHg 84%
    19:00 +20°C° 0 mm 3 m/s 740 mmHg 87%
    20:00 +19°C° 0 mm 2 m/s 740 mmHg 91%
    21:00 +19°C° 0 mm 2 m/s 740 mmHg 93%
    22:00 +19°C° 0 mm 2 m/s 740 mmHg 94%
    23:00 +19°C° 0 mm 2 m/s 740 mmHg 96%

    25 Iulie, Miercuri

    Timp Temperatura Precipitaţii Vânt Presiune Umiditate
    00:00 +18°C° 0 mm 2 m/s 740 mmHg 97%
    01:00 +18°C° 0 mm 2 m/s 740 mmHg 98%
    02:00 +18°C° 0 mm 2 m/s 740 mmHg 98%
    03:00 +18°C° 0 mm 2 m/s 740 mmHg 98%
    04:00 +18°C° 0 mm 2 m/s 740 mmHg 98%
    05:00 +18°C° 0 mm 2 m/s 740 mmHg 97%
    06:00 +19°C° 0 mm 3 m/s 741 mmHg 96%
    07:00 +19°C° 0 mm 3 m/s 741 mmHg 94%
    08:00 +20°C° 0 mm 3 m/s 741 mmHg 92%
    09:00 +21°C° 0 mm 3 m/s 741 mmHg 88%
    10:00 +22°C° 0 mm 3 m/s 741 mmHg 85%
    11:00 +24°C° 0 mm 2 m/s 741 mmHg 81%
    12:00 +25°C° 0,2 mm 3 m/s 741 mmHg 75%
    13:00 +27°C° 0,2 mm 3 m/s 741 mmHg 69%
    14:00 +28°C° 0,2 mm 3 m/s 741 mmHg 63%
    15:00 +28°C° 0,3 mm 3 m/s 741 mmHg 66%
    16:00 +28°C° 0,3 mm 3 m/s 741 mmHg 69%
    17:00 +27°C° 0,3 mm 3 m/s 741 mmHg 71%
    18:00 +26°C° 0,1 mm 3 m/s 741 mmHg 78%
    19:00 +24°C° 0,1 mm 3 m/s 741 mmHg 84%
    20:00 +23°C° 0,1 mm 2 m/s 741 mmHg 90%
    21:00 +21°C° 0,1 mm 3 m/s 741 mmHg 92%
    22:00 +21°C° 0,1 mm 3 m/s 741 mmHg 93%
    23:00 +20°C° 0,1 mm 3 m/s 742 mmHg 95%
    Arată mai mult